Simultaneous Nadir Overpasses (SNOs) Predictions

Prediction of SNOs between NOAA-19 and NPP Satellite Orbit:

Table of predicted SNOs for the next 14.0 days since TLE Epoch: 11/26/2022
Index Date (NOAA-19) Time (NOAA-19) Lat,Lon (NOAA-19) SZA (NOAA-19 ) Date (NPP) Time (NPP) Lat,Lon (NPP) SZA (NPP ) Distance(km) Time Diff (sec)
1 12/02/2022 15:01:14 -75.99, 117.23 81.65 12/02/2022 15:02:27 -76.06, 117.81 81.63 17.64 73
2 12/02/2022 15:52:08 76.10, -75.07 98.45 12/02/2022 15:53:14 76.13, -75.10 98.46 2.44 66
3 12/02/2022 16:43:11 -76.10, 92.16 81.55 12/02/2022 16:43:58 -76.12, 92.25 81.56 2.90 47
4 12/02/2022 17:34:07 76.13,-100.47 98.48 12/02/2022 17:34:44 76.13,-100.50 98.47 0.77 37
5 12/02/2022 18:25:10 -76.13, 66.76 81.52 12/02/2022 18:25:28 -76.12, 66.85 81.54 2.49 18
6 12/02/2022 19:16:06 76.16,-125.87 98.51 12/02/2022 19:16:14 76.14,-125.90 98.49 1.90 8
7 12/02/2022 20:07:09 -76.16, 41.37 81.49 12/02/2022 20:06:59 -76.18, 41.29 81.46 3.01 10
8 12/02/2022 20:58:06 76.14,-151.44 98.51 12/02/2022 20:57:44 76.15,-151.30 98.51 3.73 22
9 12/02/2022 21:49:08 -76.18, 15.97 81.46 12/02/2022 21:48:29 -76.18, 15.89 81.45 2.10 39
10 12/02/2022 22:40:05 76.16,-176.83 98.54 12/02/2022 22:39:14 76.16,-176.70 98.53 3.58 51
11 12/02/2022 23:31:07 -76.21, -9.43 81.43 12/02/2022 23:29:59 -76.19, -9.51 81.43 2.96 68
12 12/03/2022 00:22:00 76.37, 158.45 98.70 12/03/2022 00:20:48 76.35, 157.25 98.77 31.50 72



Historial Predications of SNOs between NOAA-19 and NPP
